Flag for U.S.A. Weather past 2 weeks in Victorville, California, U.S.A.

Now
66 °F

Clear.


Feels Like: 66 °F
Forecast: 64 / 95 °F
Wind: No wind

Location: George Air Force Base / Victorvi

Current Time: Aug 3, 2015 at 6:40:51 AM

Latest Report: Aug 3, 2015 at 6:15 AM


Visibility: 10 mi

Pressure: 29.96 "Hg (27.19 "Hg at 830m altitude)

Humidity: 56%

Dew point: 50 °F

Location of VictorvilleLocation

Historic Weather in Victorville — Graph

°F

Victorville temperature yesterday

Maximum temperature yesterday: 100 °F (at 3:35 PM)
Minimum temperature yesterday: 68 °F (at 6:15 AM)
Average temperature yesterday: 83 °F

Past Weeks' High & Low Weather Summary

 TemperatureHumidityPressure
High100 °F (Aug 2, 3:35 PM)100% (Jul 19, 5:35 AM)30.18 "Hg (Jul 19, 5:35 AM)
Low61 °F (Jul 19, 5:35 AM)5% (Jul 28, 4:55 PM)29.86 "Hg (Jul 21, 5:55 PM)
Average79 °F43%30.02 "Hg
* Reported Jul 19 5:15 AM — Aug 3 5:15 AM, Victorville, Weather by CustomWeather, © 2015

Note: Actual official high and low records may vary slightly from our data, if they occured in-between our weather recording intervals... More about our weather records

Advertising

Victorville weather history for previous 24 hours

 ConditionsComfort  
Time TempWeatherWind HumidityBarometerVisibility
5:15 AM
Mon, Aug 3
70 °FClear.No wind33%29.95 "Hg10 mi
4:55 AM68 °FClear.No wind35%29.94 "Hg10 mi
4:35 AM68 °FClear.No wind40%29.94 "Hg10 mi
4:15 AM66 °FClear.No wind46%29.94 "Hg10 mi
3:55 AM68 °FClear.No wind46%29.94 "Hg10 mi
3:35 AM70 °FClear.No wind43%29.95 "Hg10 mi
3:15 AM72 °FClear.No wind38%29.94 "Hg10 mi
2:55 AM72 °FClear.No wind36%29.94 "Hg10 mi
2:35 AM73 °FClear.No wind33%29.94 "Hg10 mi
2:15 AM72 °FClear.No wind38%29.94 "Hg10 mi
1:55 AM72 °FClear.No wind41%29.94 "Hg10 mi
1:35 AM72 °FClear.No wind41%29.95 "Hg10 mi
1:15 AM72 °FClear.No wind41%29.95 "Hg10 mi
12:55 AM72 °FClear.No wind41%29.95 "Hg10 mi
12:35 AM73 °FClear.No wind41%29.95 "Hg10 mi
12:15 AM73 °FClear.No wind38%29.95 "Hg10 mi
11:55 PM
Sun, Aug 2
75 °FClear.No wind39%29.95 "Hg10 mi
11:35 PM73 °FClear.No wind44%29.95 "Hg10 mi
11:15 PM75 °FClear.No wind39%29.94 "Hg10 mi
10:55 PM75 °FClear.No wind36%29.94 "Hg10 mi
10:35 PM77 °FClear.No wind34%29.95 "Hg10 mi
10:15 PM77 °FClear.No wind32%29.95 "Hg10 mi
9:55 PM79 °FClear.No wind28%29.94 "Hg10 mi
9:15 PM82 °FClear.No wind21%29.92 "Hg10 mi
8:55 PM84 °FClear.No wind19%29.92 "Hg10 mi
8:35 PM86 °FSunny.No wind18%29.91 "Hg10 mi
8:15 PM88 °FSunny.No wind18%29.91 "Hg10 mi
7:55 PM88 °FSunny.No wind16%29.90 "Hg10 mi
7:35 PM90 °FSunny.13 mph15%29.89 "Hg10 mi
7:15 PM91 °FSunny.15 mph14%29.88 "Hg10 mi
6:55 PM93 °FSunny.16 mph12%29.88 "Hg10 mi
6:35 PM93 °FSunny.18 mph12%29.88 "Hg10 mi
6:15 PM97 °FSunny.18 mph10%29.88 "Hg10 mi
5:55 PM97 °FSunny.18 mph12%29.88 "Hg10 mi
5:35 PM97 °FSunny.20 mph12%29.89 "Hg10 mi
5:15 PM97 °FSunny.21 mph13%29.88 "Hg10 mi
4:55 PM99 °FSunny.22 mph12%29.89 "Hg10 mi
4:35 PM99 °FSunny.23 mph12%29.90 "Hg10 mi
4:15 PM99 °FSunny.23 mph13%29.90 "Hg10 mi
3:55 PM99 °FSunny.20 mph13%29.90 "Hg10 mi
3:35 PM100 °FSunny.18 mph11%29.91 "Hg10 mi
2:15 PM99 °FSunny.16 mph12%29.94 "Hg10 mi
1:55 PM99 °FSunny.20 mph12%29.94 "Hg10 mi
1:35 PM99 °FSunny.14 mph12%29.95 "Hg10 mi
1:15 PM99 °FSunny.14 mph12%29.96 "Hg10 mi
12:55 PM97 °FSunny.No wind13%29.96 "Hg10 mi
12:35 PM93 °FSunny.No wind15%29.97 "Hg10 mi
12:15 PM95 °FSunny.6 mph14%29.98 "Hg10 mi
11:55 AM93 °FSunny.No wind15%29.98 "Hg10 mi
11:35 AM91 °FSunny.No wind17%29.98 "Hg10 mi
11:15 AM91 °FSunny.No wind20%29.99 "Hg10 mi
10:55 AM90 °FSunny.No wind21%29.99 "Hg10 mi
10:35 AM88 °FSunny.No wind22%30.00 "Hg10 mi
10:15 AM86 °FSunny.No wind24%30.00 "Hg10 mi
9:55 AM84 °FSunny.No wind25%30.01 "Hg10 mi
9:35 AM84 °FSunny.No wind25%30.01 "Hg10 mi
9:15 AM82 °FSunny.No wind28%30.01 "Hg10 mi
8:55 AM81 °FSunny.No wind30%30.01 "Hg10 mi
8:35 AM79 °FSunny.No wind30%30.01 "Hg10 mi
8:15 AM79 °FSunny.No wind30%30.01 "Hg10 mi
7:55 AM77 °FSunny.No wind32%30.00 "Hg10 mi
7:35 AM73 °FSunny.No wind33%30.00 "Hg10 mi
7:15 AM72 °FSunny.No wind44%29.99 "Hg10 mi
6:55 AM70 °FClear.No wind46%29.99 "Hg10 mi
6:35 AM68 °FClear.No wind53%29.99 "Hg10 mi
6:15 AM68 °FClear.No wind49%29.98 "Hg10 mi
Weather by CustomWeather, © 2015

See weather overviewHow to use our weather pages